Rome, NY

10:08 PM EST on November 14, 2019 (GMT -0500)
Griffiss

Weather History for KRME - September, 2019

Change the Weather History Date:

Wednesday, September 11, 2019

  Actual Average Record
Temperature  
Mean Temperature 72 °F -  
Max Temperature 81 °F 73 °F 93 °F (2013)
Min Temperature 64 °F 52 °F 39 °F (2012)
Cooling Degree Days 8    
Growing Degree Days 22 (Base 50)    
Moisture  
Dew Point 68 °F    
Average Humidity 89    
Maximum Humidity 100    
Minimum Humidity 67    
Precipitation  
Precipitation 0.11 in - - ()
Sea Level Pressure  
Sea Level Pressure 30.08 in    
Wind  
Wind Speed 4 mph (NNW)    
Max Wind Speed 13 mph    
Max Gust Speed -    
Visibility 9 miles    
Events Rain    
Averages and records for this station are not official NWS values.
T = Trace of Precipitation, MM = Missing Value Source: NWS Daily Summary

Daily Weather History Graph

Daily Weather History Graph

Search for Another Location

Airport or City:

Astronomy

Sep. 11, 2019 Rise Set
Actual Time 6:36 AM EDT 7:19 PM EDT
Civil Twilight 6:07 AM EDT 7:48 PM EDT
Nautical Twilight 5:33 AM EDT 8:22 PM EDT
Astronomical Twilight 4:58 AM EDT 8:57 PM EDT
Moon 6:35 PM EDT (9/11) 3:50 AM EDT (9/11)
Length of Visible Light 13h 40m
Length of Day
12h 42m
Waxing Gibbous, 94% of the Moon is Illuminated
Sep 11
Waxing Gibbous
Sep 14
Full
Sep 21
Last Quarter
Sep 28
New
Oct 5
First Quarter

Hourly Weather History & Observations

Time (EDT) Temp. Heat Index Dew Point Humidity Pressure Visibility Wind Dir Wind Speed Gust Speed Precip Events Conditions
12:53 AM 66.9 °F - 66.0 °F 97% 30.11 in 10.0 mi Calm Calm - N/A   Scattered Clouds
1:53 AM 70.0 °F - 66.9 °F 90% 30.09 in 10.0 mi East 5.8 mph - N/A   Mostly Cloudy
2:53 AM 69.1 °F - 66.9 °F 93% 30.09 in 10.0 mi ENE 5.8 mph - 0.01 in   Overcast
3:53 AM 68.0 °F - 68.0 °F 100% 30.11 in 6.0 mi Calm Calm - 0.02 in Rain Light Rain
4:53 AM 66.9 °F - 66.9 °F 100% 30.11 in 3.0 mi SE 4.6 mph - 0.05 in Rain Rain
5:53 AM 66.9 °F - 66.9 °F 100% 30.09 in 5.0 mi ESE 4.6 mph - 0.03 in Rain Light Rain
6:53 AM 68.0 °F - 66.9 °F 96% 30.09 in 10.0 mi East 4.6 mph - 0.00 in   Overcast
7:53 AM 68.0 °F - 68.0 °F 100% 30.10 in 9.0 mi Calm Calm - N/A   Overcast
8:53 AM 70.0 °F - 68.0 °F 93% 30.10 in 10.0 mi East 3.5 mph - N/A   Overcast
9:08 AM 70.0 °F - 68.0 °F 93% 30.12 in 10.0 mi ESE 4.6 mph - N/A   Overcast
9:53 AM 70.0 °F - 69.1 °F 97% 30.10 in 10.0 mi Calm Calm - N/A   Overcast
10:53 AM 73.0 °F - 70.0 °F 90% 30.10 in 10.0 mi West 3.5 mph - N/A   Overcast
11:53 AM 75.9 °F - 71.1 °F 85% 30.08 in 10.0 mi WNW 9.2 mph - N/A   Mostly Cloudy
12:08 PM 75.9 °F - 71.1 °F 85% 30.10 in 10.0 mi West 10.4 mph - N/A   Overcast
12:53 PM 79.0 °F - 71.1 °F 77% 30.08 in 10.0 mi West 9.2 mph - N/A   Scattered Clouds
1:53 PM 79.0 °F - 72.0 °F 79% 30.06 in 10.0 mi WNW 9.2 mph - N/A   Mostly Cloudy
2:53 PM 80.1 °F 83.2 °F 70.0 °F 71% 30.06 in 10.0 mi WNW 11.5 mph - N/A   Scattered Clouds
3:53 PM 81.0 °F 84.1 °F 69.1 °F 67% 30.06 in 10.0 mi WNW 9.2 mph - N/A   Partly Cloudy
4:53 PM 80.1 °F 82.7 °F 68.0 °F 67% 30.05 in 10.0 mi WNW 12.7 mph - N/A   Clear
5:53 PM 78.1 °F - 68.0 °F 71% 30.03 in 10.0 mi West 6.9 mph - N/A   Clear
6:53 PM 75.0 °F - 68.0 °F 79% 30.04 in 10.0 mi WNW 6.9 mph - N/A   Clear
7:53 PM 73.0 °F - 68.0 °F 84% 30.06 in 10.0 mi NNW 3.5 mph - N/A   Clear
8:53 PM 66.9 °F - 66.0 °F 97% 30.07 in 10.0 mi Calm Calm - N/A   Clear
9:53 PM 66.0 °F - 64.9 °F 96% 30.06 in 10.0 mi Calm Calm - N/A   Clear
10:53 PM 64.9 °F - 64.9 °F 100% 30.06 in 10.0 mi Calm Calm - N/A   Clear
11:43 PM 68.0 °F - 66.0 °F 93% 30.07 in 10.0 mi North 5.8 mph - N/A   Mostly Cloudy
11:53 PM 66.9 °F - 64.9 °F 93% 30.06 in 10.0 mi NNE 6.9 mph - N/A   Mostly Cloudy